Weather in Mersa Matruh

Egypt     31°19′23″N   27°16′01″E
temp.,
°C
wind,
m/s
gust,
m/s
humid.,
%
clouds,
%
prec.,
mm/h
press.,
hPa
HPBL,
m
4 july, mon
mon423:00+24n34850 0.0 1008166
02:00+23nnw46810 0.0 1007141
05:00+23nnw46870 0.0 1007133
08:00+26n67620 0.0 1008687
11:00+29n66470 0.0 1008944
14:00+30nnw76390 0.0 10081039
17:00+28nnw77460 0.0 1008808
20:00+25nnw35690 0.0 1008175
5 july, tue
tue523:00+24n23820 0.0 100944
02:00+22n23830 0.0 100831
05:00+21nnw22860 0.0 100820
08:00+26nw23600 0.0 1009465
11:00+31nnw33320 0.0 10091074
14:00+31nnw65310 0.0 1009960
17:00+29nnw77410 0.0 1008569
20:00+25n57710 0.0 1009254
6 july, wed
wed623:00+24nnw22790 0.0 100925
02:00+23wnw33750 0.0 100828
05:00+21wnw44750 0.0 100851
08:00+25wnw34540 0.0 1009339
11:00+31nw44290 0.0 10091018
14:00+32n76290 0.0 1008827
17:00+29n77390 0.0 1008594
20:00+25nnw34640 0.0 100997
7 july, thu
thu723:00+23wnw22690 0.0 100913
02:00+22wnw44630 0.0 100942
05:00+22wnw44730 0.0 100951
08:00+28nw66480 0.0 1009541
11:00+32nnw68290 0.0 10091018
14:00+32nnw79300 0.0 10091060
17:00+31nnw79350 0.0 1009713
20:00+26nw47670 0.0 1010170
8 july, fri
fri823:00+25wnw46760 0.0 1010109
02:00+24wnw46800 0.0 100994
05:00+23wnw57910 0.0 1009128
08:00+27nw56650 0.0 1010429
11:00+32nnw66360 0.0 1010836
14:00+33nnw65350 0.0 1009927
17:00+31nnw78370 0.0 1009655
20:00+26nw46670 0.0 1009120